STARLINK-3302 (50842 NORAD) Tracking and Keplerian Element Data

This shows tracking and keplerian element data for the satellite.

Feedback or suggestion? Click here.




ElementValue
Catalog50842
NameSTARLINK-3302
Epoch Orbit2188
Epoch Day140.91667824
Epoch Year2022
RAAN293.5664
Inclination53.2163
Eccentricity0.000216
Argument of Perigee29.3942
Mean Anonmoly133.6873
Mean Motion15.08817708
Decay Rate0.00040567
L11 50842U 22001AR 22140.91667824 .00040567 00000+0 25539-2 0 9993
L22 50842 53.2163 293.5664 0002160 29.3942 133.6873 15.08817708 21889

Live tracking and technical data element details for STARLINK-3302 (NORAD 50842). STARLINK-3302 can be tracked NOW for your location showing map with azimuth and elevation plus other details from your city location.

Track the satellite on the map from your city or location and see movement details for azimuth, elevation, latitude, longitude, range, height, and movement on the map or in text.







IsCatalogInMostPopularTable: catalog: 50842, numindb: 28
Update: records affected: 1



GetName: 50842 STARLINK-3302

Hit Count: updated at: Sun, 22 May 2022 05:33:30 GMT